www.pogodaiklimat.ru

Погода и климат >> Архив погоды >> Катар >> Духан


ПОГОДА в Духане

  • Прогноз погоды в Духане
  • Монитор погоды в Духане

АРХИВ ПОГОДЫ в Духане

Время (UTC), дата Ветер
(напр.,м/с)
 
Видим.   Явления Облачность Т
(С)
Тd
(С)
f
(%)
Тe
(С)
Тes
(С)
Комфортность P
(гПа)
Po
(гПа)
Тmin
(С)
Tmax
(С)
R
(мм)
R24
(мм)
S
(см)
12 11.06 С 6 17 км н/о +37.6 +24.9 48 +50 +50 опасность
перегрева
998.7 998.5
15 11.06 С 5 20 км н/о +37.5 +22.3 42 +46 +46 опасность
перегрева
998.1 997.9
18 11.06 штиль 0 14 км н/о +32.8 +29.7 84 +59 +59 опасность
перегрева
999.3 999.1 +37.8
21 11.06 СЗ 2 12 км н/о +32.2 +29.3 85 +57 +57 опасность
перегрева
999.1 998.9
00 12.06 С 7 18 км н/о +33.4 +28.1 74 +54 +54 опасность
перегрева
998.3 998.1
03 12.06 СЗ 12 12 км н/о +33.0 +27.0 71 +51 +51 опасность
перегрева
999.3 999.1
06 12.06 С 11 14 км н/о +34.1 +24.3 57 +47 +47 опасность
перегрева
1000.1 999.9 +30.4
09 12.06 С 16 13 км н/о +38.5 +22.9 41 +48 +48 опасность
перегрева
998.9 998.7
12 12.06 С 21 н/о н/о +39.9 +19.4 31 +45 +45 опасность
перегрева
998.1 997.9
15 12.06 С 18 17 км н/о +37.3 +22.1 42 +46 +46 опасность
перегрева
998.5 998.3
18 12.06 С 6 18 км н/о +34.3 +27.1 66 +52 +52 опасность
перегрева
1000.0 999.8 +39.9
21 12.06 СЗ 5 19 км н/о +32.8 +29.1 81 +57 +57 опасность
перегрева
999.3 999.1
00 13.06 С 4 20 км н/о +33.3 +27.9 73 +53 +53 опасность
перегрева
998.9 998.7
03 13.06 С 12 20 км н/о +35.1 +23.4 51 +46 +46 опасность
перегрева
1000.1 999.9
06 13.06 С 16 20 км н/о +35.3 +23.4 50 +46 +46 опасность
перегрева
1001.8 1001.6 +32.5
09 13.06 С 18 20 км н/о +37.0 +21.0 40 +44 +44 опасность
перегрева
1001.1 1000.9
12 13.06 С 15 19 км н/о +34.7 +25.1 58 +49 +49 опасность
перегрева
999.9 999.7
15 13.06 С 14 19 км н/о +34.2 +26.9 66 +52 +52 опасность
перегрева
999.6 999.4
18 13.06 С 13 20 км н/о +34.5 +24.3 55 +47 +47 опасность
перегрева
1000.7 1000.5 +37.2
21 13.06 СЗ 9 20 км н/о +33.4 +26.0 65 +49 +49 опасность
перегрева
999.7 999.5
00 14.06 СЗ 10 20 км н/о +33.0 +25.3 64 +47 +47 опасность
перегрева
998.6 998.4
03 14.06 СЗ 10 20 км н/о +32.8 +25.9 67 +48 +48 опасность
перегрева
999.7 999.5
06 14.06 СЗ 12 13 км н/о +33.7 +22.7 53 +44 +44 опасность
перегрева
1000.9 1000.7 +32.3
09 14.06 С 11 19 км н/о +35.3 +22.3 47 +44 +44 опасность
перегрева
1000.4 1000.2
12 14.06 СЗ 7 20 км н/о +35.8 +25.3 55 +50 +50 опасность
перегрева
999.0 998.8
21 14.06 В 2 20 км н/о +32.1 +25.8 69 +47 +47 опасность
перегрева
998.6 998.4
00 15.06 С 7 20 км н/о +33.7 +24.1 57 +46 +46 опасность
перегрева
997.9 997.7
03 15.06 СЗ 7 20 км н/о +33.8 +23.6 55 +45 +45 опасность
перегрева
998.9 998.7
06 15.06 СЗ 8 20 км н/о +34.6 +24.0 54 +46 +46 опасность
перегрева
1000.4 1000.2 +32.1
09 15.06 СЗ 9 20 км н/о +35.4 +24.3 53 +48 +48 опасность
перегрева
999.8 999.6
12 15.06 СЗ 7 20 км н/о +35.8 +27.2 61 +54 +54 опасность
перегрева
998.8 998.6
15 15.06 С 5 20 км н/о +35.8 +26.6 59 +53 +53 опасность
перегрева
998.7 998.5
18 15.06 С 2 20 км н/о +32.4 +26.5 71 +49 +49 опасность
перегрева
999.7 999.5 +37.2
21 15.06 штиль 0 20 км н/о +28.4 +23.5 75 +39 +39 очень
душно
998.8 998.6
00 16.06 СЗ 5 20 км н/о +31.6 +26.5 74 +48 +48 опасность
перегрева
997.7 997.5
03 16.06 ЮЗ 2 20 км н/о +29.8 +20.8 59 +37 +37 очень
душно
999.5 999.3
06 16.06 СЗ 9 20 км н/о +34.7 +24.3 55 +47 +47 опасность
перегрева
1000.4 1000.2 +26.0
09 16.06 С 11 20 км н/о +35.8 +24.4 52 +48 +48 опасность
перегрева
1000.0 999.8
12 16.06 С 13 20 км н/о +35.8 +26.4 58 +52 +52 опасность
перегрева
998.7 998.5
15 16.06 СВ 8 20 км н/о +37.5 +19.5 35 +42 +42 опасность
перегрева
998.6 998.4
18 16.06 СВ 5 20 км н/о +33.8 +20.7 46 +41 +41 опасность
перегрева
1000.1 999.9 +38.5
21 16.06 ЮВ 1 20 км н/о +28.6 +20.7 62 +35 +35 очень
душно
999.7 999.5
00 17.06 З 3 18 км н/о +28.3 +22.9 73 +38 +38 очень
душно
998.7 998.5
03 17.06 СЗ 8 17 км н/о +33.2 +26.8 69 +51 +51 опасность
перегрева
999.5 999.3
06 17.06 С 15 14 км н/о +34.8 +24.7 56 +48 +48 опасность
перегрева
1000.8 1000.6 +26.3
09 17.06 С 11 12 км н/о +36.3 +24.0 49 +48 +48 опасность
перегрева
1001.0 1000.8
12 17.06 С 11 16 км н/о +36.4 +26.4 57 +53 +53 опасность
перегрева
999.4 999.2
15 17.06 С 8 15 км н/о +35.4 +28.9 69 +58 +58 опасность
перегрева
999.4 999.2
18 17.06 С 11 14 км н/о +34.3 +28.3 71 +56 +56 опасность
перегрева
1000.4 1000.2 +37.3
21 17.06 СЗ 13 18 км н/о +34.1 +27.7 69 +54 +54 опасность
перегрева
999.9 999.7
00 18.06 С 7 20 км н/о +33.5 +27.2 70 +52 +52 опасность
перегрева
999.3 999.1
03 18.06 С 15 20 км н/о +33.8 +27.5 70 +53 +53 опасность
перегрева
1000.4 1000.2
06 18.06 С 12 15 км н/о +34.0 +28.0 71 +55 +55 опасность
перегрева
1001.4 1001.2 +33.5
09 18.06 С 17 20 км н/о +37.0 +23.3 46 +47 +47 опасность
перегрева
1001.1 1000.9

 

Местоположение метеостанции Духан (Катар): широта 25.40 долгота 50.75 высота над уровнем моря 5 м.

В архиве по умолчанию представлена погода в Духане за последнюю неделю. Архивные данные за месяц целиком и за предыдущие месяцы, начиная с января 2011 года, Вы можете получить, выбрав интересующий диапазон дат из раскрывающегося списка и нажав кнопку "Ввод!".


*Определитесь, кто Вы:
робот инопланетянин человек

Внимание! Время в таблицах - всемирное. Для получения местного времени необходимо прибавить поправку, которая равна 4 ч.

Смотрите также архив погоды в соседних городах и на ближайших метеорологических станциях:

Погода в Абу Самба (Катар) (73 км)
Погода в Дохе (Катар) (84 км)
Погода в Аэропорту Хамад (Катар) (88 км)
Погода в Доха порту (Катар) (91 км)
Погода в Бахрейне (Бахрейн) (97 км)
Погода в Дахране (Саудовская Аравия) (113 км)
Погода в Эль-Хуфуфе (Саудовская Аравия) (128 км)
Погода в Эд-Даммаме (Саудовская Аравия) (149 км)
Погода в Бендер-Дейере (Иран) (295 км)
Погода на Острове Киш (Иран) (345 км)

Пояснения к столбцам:

Ветер - указаны скорость ветра в м/с - средняя за 10 мин, порывы в срок и между сроками (в фигурных скобках) и направление, откуда дует ветер: С - северный, СВ - северо-восточный, В - восточный, ЮВ - юго-восточный, Ю - южный, ЮЗ - юго-западный, З - западный, СЗ - северо-западный.
Видимость - горизонтальная дальность видимости в метрах или километрах. При видимости от 1 до 10 км при отсутствии осадков обычно наблюдается дымка, при ухудшении видимости до 1 км и менее - туман. В сухую погоду видимость может ухудшаться дымом, пылью или мглою.
Явления - указаны атмосферные явления, наблюдавшиеся в срок или в последний час перед сроком; фигурными скобками обозначены явления, наблюдавшиеся между сроками (за 1-3 часа до срока); квадратными скобками обозначены град или гололедные отложения с указанием их диаметра в мм.
Облачность - указаны через наклонную черту общая и нижняя облачность в баллах и высота нижней границы облаков в метрах; квадратными скобками обозначены формы облаков: Ci - перистые, Cs - перисто-слоистые, Cc - перисто-кучевые, Ac - высококучевые, As - высокослоистые, Sc - слоисто-кучевые, Ns - слоисто-дождевые, Cu - кучевые, Cb - кучево-дождевые. Подробнее классификацию облаков см. в Атласе облаков (PDF).
T - Температура воздуха - температура, измеренная на высоте 2 м над землей.
Td - Температура точки росы - температура, при понижении до которой содержащийся в воздухе водяной пар достигнет насыщения.
f - Относительная влажность воздуха - влажноcть воздуха, измеренная на высоте 2 м над землей.
Te - Эффективная температура - температура, которую ощущает одетый по сезону человек в тени. Характеристика душности погоды. При расчете учитывается влияние влажности воздуха и скорости ветра на теплоощущения человека.
Tes - Эффективная температура на солнце - температура, которую ощущает человек, с поправкой на солнечный нагрев. Характеристика знойности погоды. Зависит от высоты солнца над горизонтом, облачности и скорости ветра. Ночью, в пасмурную погоду, а также при ветре 12 м/с и более поправка равна нулю.
P - Атмосферное давление - приведенное к уровню моря атмосферное давление.
Po - Атмосферное давление - измеренное на уровне метеостанции атмосферное давление.
Tmin - Минимальная температура - минимум температуры воздуха на высоте 2 м над землей.
Tmax - Максимальная температура - максимум температуры воздуха на высоте 2 м над землей.
R - Количество осадков - Количество выпавших осадков за период времени, мм. При наведении курсора мыши на число - период времени, за который выпало указанное количество осадков.
R24 - Количество осадков - Количество выпавших осадков за 24 часа, мм.
S - Снежный покров - Высота снежного покрова, см. При наведении курсора мыши на число - состояние снежного покрова и степень покрытия местности в баллах.